COSMOS 1275 DEB, 13466

Orbit data source: Space-Track

COSMOS 1275 DEB, 13466 is space debris in LEO originally from a launch on Thu, 04 Jun 1981 UTC launched from the Plesetsk Missile And Space Complex (PKMTR). Debris objects in space refer to the collection of defunct objects orbiting the Earth. Examples of debris include non-operational satellites, rocket bodies, and fragments generated from explosions, collisions, or faulty payload assembly.

Loading next visibility...
Identifier
13466, 1981-053FN
Orbit
LEO
Country
Flag of CISCIS
Related business
Manufacturer
Unknown
Mission
Spacecraft
Bus & Motor
Unknown
Mass
Unknown
Launch date (UTC)
1981-06-04 (45 years ago)
Launch vehicle
Unknown
Launch site
Plesetsk Missile And Space Complex (PKMTR)
Object type
Payload
Rocket body
Debris
Shape & HBR
Unknown shape, 0.1 m
Radar Cross Section
Small (<0.1 m²)

Expand to show TLE details & history
Last TLE update: 10 hours ago

TLE from 10 hours ago
0 COSMOS 1275 DEB
1 13466U 81053FN  25355.16535443  .00000693  00000-0  84643-3 0  9994
2 13466  83.0706 312.1650 0142994   1.3337  15.1992 13.60357408156769
Epoch: 2025-12-21T03:58Z
TLE epoch observation values (Epoch: 2025-12-21T03:58:06.622Z)
Latitude
16.82838°
Longitude
164.75125°
Altitude
934.456 km
Speed
7.437 km/s
True Right ascension
20h 57m 02s
True Declination
16° 44' 08"
Sunlit
Object was in daylight at epoch
Visualization orbit readout
Latitude
Unknown
Longitude
Unknown
Altitude
Unknown
Speed
Unknown
Apparent Right ascension
Unknown
Apparent Declination
Unknown
Sunlit
N/A
Visualization observer readout
Local Sidereal Time
12:54:25
Azimuth
Unknown
Elevation
Unknown
Doppler factor
Unknown
Orbital elements
Apogee altitude
1,137.511 km
Perigee altitude
925.603 km
Semi-major axis
7,409.694 km
Eccentricity
0.0143
Inclination
83.0706°
RAAN
312.165°
Arg. of periapsis
1.3337°
True anomaly
15.63633°
Mean anomaly
15.1992°
Eccentric anomaly
15.417°
Mean motion
3.40285 °/min
Orbital period
105.79 mins
BSTAR
0.00084643
Loading maneuver chart data...
Computing Atmospheric mass density...
Loading historical data...
Loading historical data...
Loading historical data...
Loading historical data...
Loading historical data...
Loading historical data...
Loading historical data...

Documentation

Showing up to 5 results
|